Temperature
18 18 18 18 18 18 18 18 18 18 18 18 18 18 18 18 18 18 18 18 18 18 18 18 18 18 18 18 18 18 18 18 17 17 17 17 17 17 17 17 17 17 17
18 18 18 18 18 18 18 18 18 18 18 18 18 18 18 18 18 18 18 18 18 18 18 18 18 18 18 18 18 18 18 17 17 17 17 17 17 17 17 17 17 17 17
18 18 18 18 18 18 18 18 18 18 18 18 18 19 19 18 18 18 18 18 18 18 18 18 18 18 18 18 18 18 17 17 17 17 17 17 17 17 17 17 17 17 17
17 18 18 18 18 18 18 18 18 18 18 18 19 19 19 19 19 18 18 18 18 18 18 18 18 18 18 18 17 17 17 17 17 17 17 17 17 17 17 17 17 17 16
17 17 17 18 18 18 18 18 18 18 18 19 19 19 19 19 19 18 18 18 18 18 18 18 18 18 18 18 17 17 17 17 17 17 17 17 17 17 16 16 16 16 16
17 17 17 17 17 17 18 18 18 18 18 18 19 19 19 19 19 19 19 18 18 18 18 18 18 18 18 18 17 17 17 17 17 17 17 17 17 16 16 16 16 16 16
16 16 17 17 17 17 17 18 18 18 18 18 18 18 19 19 19 19 19 18 18 18 18 18 18 18 18 18 18 17 17 17 17 17 17 17 16 16 16 16 16 16 16
16 16 16 16 17 17 17 17 17 17 17 18 18 18 18 18 18 18 18 18 18 18 18 18 18 18 18 18 18 18 17 17 17 17 17 17 17 16 16 16 16 16 16
15 16 16 16 16 16 17 17 17 17 17 17 18 18 18 18 18 18 18 18 18 18 18 18 18 18 18 18 18 18 18 17 17 17 17 17 17 17 17 17 16 16 16
15 15 15 16 16 16 16 17 17 17 17 17 17 17 18 18 18 18 18 18 18 18 18 18 18 18 18 18 17 17 17 17 17 17 17 17 17 17 16 16 16 16 16
15 15 15 15 15 16 16 16 16 16 16 17 17 17 17 17 18 18 18 18 18 18 18 18 18 18 18 17 17 17 17 17 17 17 17 17 17 17 16 16 16 16 16
14 14 15 15 15 15 16 16 16 16 16 16 17 17 17 17 17 18 18 18 18 18 18 18 18 18 17 17 17 17 17 17 17 17 17 16 16 16 16 16 16 16 15
14 14 14 15 15 15 15 15 16 16 16 16 16 16 17 17 17 17 17 17 17 17 17 17 17 17 17 17 17 17 17 17 16 16 16 16 16 16 16 15 15 15 15
13 14 14 14 15 15 15 15 15 16 16 16 16 16 16 16 16 17 17 17 17 17 17 17 17 17 17 17 17 16 16 16 16 16 16 16 15 15 15 15 15 15 15
13 13 14 14 14 14 15 15 15 15 15 16 16 16 16 16 16 16 16 16 16 16 16 17 17 17 17 16 16 16 16 16 16 16 15 15 15 15 15 15 15 14 14
13 13 13 13 14 14 14 14 15 15 15 15 15 15 16 16 16 16 16 16 16 16 16 16 16 16 16 16 16 16 16 15 15 15 15 15 15 15 14 14 14 14 14
12 12 13 13 13 14 14 14 14 15 15 15 15 15 15 15 15 15 15 15 15 15 15 16 16 16 15 15 15 15 15 15 15 15 15 14 14 14 14 14 14 14 14
12 12 12 12 13 13 13 14 14 14 14 15 15 15 15 15 15 15 15 15 15 15 15 15 15 15 15 15 15 15 14 14 14 14 14 14 14 14 14 14 13 13 13
12 12 12 12 12 13 13 13 13 14 14 14 14 14 15 14 14 14 14 14 15 15 15 15 15 14 14 14 14 14 14 14 14 14 14 13 13 13 13 13 13 13 13
11 12 12 12 12 12 12 13 13 13 13 14 14 14 14 14 14 14 14 14 14 14 14 14 14 14 14 14 14 14 13 13 13 13 13 13 13 13 13 12 12 12 12
11 11 11 11 12 12 12 12 12 13 13 13 13 14 14 14 14 14 14 14 14 14 14 14 14 14 13 13 13 13 13 13 13 12 12 12 12 12 12 12 12 12 12
10 11 11 11 11 11 11 12 12 12 12 13 13 13 13 13 13 13 13 14 14 14 14 14 14 14 13 13 13 13 13 13 12 12 12 12 12 12 12 11 11 11 11
10 10 10 11 11 11 11 12 12 12 12 12 12 13 13 13 13 13 13 13 13 13 14 14 14 14 14 13 13 13 13 13 13 12 12 11 11 11 11 11 11 11 11
10 10 10 10 11 11 11 11 11 12 12 12 12 12 12 13 13 13 13 13 13 13 13 13 14 14 14 13 13 13 13 12 12 12 11 11 11 11 10 10 10 10 10
10 10 10 10 10 11 11 11 11 11 12 12 12 12 12 12 12 13 13 13 13 13 13 13 13 13 13 13 13 13 12 12 12 11 11 11 11 10 10 10 10 10 9
10 10 10 10 10 10 11 11 11 11 11 11 11 12 12 12 12 13 13 13 13 13 13 13 13 13 13 13 13 13 13 13 12 11 11 11 11 10 10 9 9 9 9
Wind_Speed
6 6 6 8 9 10 9 7 7 7 7 8 9 9 7 9 10 11 12 16 15 14 13 12 10 9 9 9 9 9 9 9 9 9 9 9 9 9 8 7 6 6 5
7 5 5 5 7 9 10 8 8 6 6 6 7 8 8 10 12 13 12 15 16 15 13 12 11 10 10 9 9 9 9 9 9 8 8 8 8 8 7 6 5 4 3
8 6 6 6 6 8 9 8 8 6 6 6 7 7 7 10 12 13 14 13 14 15 14 13 12 11 11 10 10 10 9 9 9 9 8 8 8 7 6 5 4 3 2
8 6 6 6 7 7 5 5 5 5 5 5 5 5 6 7 10 13 14 14 14 13 14 15 14 13 12 11 11 11 10 9 9 9 9 8 8 7 6 5 4 3 2
8 6 5 5 7 5 5 6 5 5 5 5 5 5 5 7 8 10 10 13 14 14 14 15 16 15 14 13 12 12 11 11 10 10 9 9 8 7 6 5 4 3 2
7 6 4 5 5 5 6 5 4 4 3 4 4 3 4 6 7 8 10 11 12 14 15 14 15 15 15 14 13 13 12 12 11 10 10 9 8 7 6 5 4 3 2
7 5 5 5 6 6 7 7 5 4 3 3 3 1 1 1 5 7 7 7 9 13 14 14 14 13 13 15 15 14 13 13 12 11 10 10 9 8 6 5 4 3 2
6 5 6 6 6 6 6 7 5 4 4 4 4 3 1 2 2 3 5 8 9 9 10 14 14 14 14 13 15 16 15 14 13 12 11 10 9 8 7 6 4 4 3
6 5 6 6 7 7 7 8 7 7 5 4 3 5 5 5 3 2 3 5 7 7 8 10 13 15 15 14 14 16 16 15 14 12 12 11 10 8 7 6 5 4 3
5 6 6 6 7 7 7 8 8 6 6 5 3 3 3 4 4 3 1 1 4 6 7 7 9 13 15 14 15 16 18 17 15 13 12 12 10 9 8 7 6 5 4
5 5 5 6 7 7 7 7 7 7 6 6 5 4 3 2 2 4 3 2 2 2 4 5 5 9 14 15 15 17 19 19 17 15 14 13 11 10 9 8 7 6 5
5 5 5 5 6 6 7 8 8 8 8 7 6 5 4 4 4 3 3 3 3 1 1 2 3 5 11 14 16 18 21 20 19 17 15 13 12 11 10 9 7 6 5
4 5 5 4 4 5 6 7 8 8 9 8 8 6 5 5 4 4 4 3 3 1 1 1 2 3 8 11 14 19 21 20 19 17 16 14 12 11 10 9 7 6 5
4 5 5 4 3 4 5 6 6 8 8 8 9 8 6 6 5 5 5 5 4 2 2 3 1 3 6 10 13 18 17 19 18 17 16 14 12 11 9 8 6 5 4
4 4 4 3 2 2 3 3 4 6 7 8 8 9 7 6 6 5 5 5 6 5 5 4 3 3 5 8 11 13 13 17 17 15 13 13 12 11 9 7 6 5 3
6 6 5 4 3 2 1 2 3 4 5 6 6 7 7 6 6 6 5 5 5 5 5 4 3 3 4 6 9 10 10 13 14 13 12 11 11 10 9 7 6 5 4
8 8 6 5 5 4 2 1 2 3 5 5 5 7 7 7 6 6 5 5 5 5 4 3 2 2 3 6 6 7 8 8 9 10 10 10 10 10 9 8 6 6 5
7 7 7 6 6 6 5 3 1 1 3 4 5 6 7 6 7 6 6 6 6 5 5 5 3 2 3 5 6 6 7 8 9 10 10 10 11 10 9 8 7 6 6
7 7 7 7 6 6 6 4 2 1 0 2 4 6 7 7 7 6 7 7 5 5 4 5 4 2 3 4 6 6 7 7 9 11 11 12 12 11 10 9 8 7 7
7 7 7 7 6 6 5 5 4 2 1 0 2 4 5 7 7 8 7 7 7 6 5 6 5 4 4 4 6 7 7 5 6 8 10 11 12 12 10 9 9 9 9
7 6 6 7 7 6 6 5 3 2 1 1 1 2 4 6 9 8 7 8 8 6 6 6 6 5 5 6 6 5 7 7 6 5 6 7 8 9 9 9 10 9 9
6 6 7 7 7 6 9 9 4 2 2 2 2 3 3 5 7 8 9 10 10 8 8 6 5 7 6 6 6 8 9 7 4 4 5 5 5 5 7 8 9 10 10
6 6 6 7 7 8 11 9 7 3 3 3 3 3 3 4 5 5 7 8 7 8 9 7 8 7 7 7 9 9 8 5 5 7 5 4 4 5 6 7 9 9 9
5 5 6 7 7 9 12 9 6 5 4 4 4 4 4 5 5 6 7 6 5 4 5 6 7 6 6 8 9 8 9 8 7 5 4 4 3 3 4 6 7 8 9
5 4 4 6 7 8 13 10 6 4 4 5 5 5 5 5 7 9 8 8 7 5 7 9 9 9 12 14 13 10 9 10 6 3 2 4 4 3 2 2 5 7 8
4 4 5 6 7 8 12 11 7 4 5 5 5 5 7 7 8 8 7 8 8 6 7 8 9 9 9 11 13 10 10 10 6 3 3 4 4 4 3 1 1 3 5
Wind_Direction
211 209 209 209 210 211 210 216 221 225 234 240 240 230 213 199 192 190 192 187 178 173 170 170 167 163 158 154 152 147 144 143 141 140 140 138 134 133 132 130 127 124 122
213 202 200 204 209 213 218 221 223 219 226 229 232 225 207 193 189 189 189 187 182 178 175 175 174 171 167 163 160 157 154 153 151 149 146 145 143 141 140 138 135 130 131
220 207 203 201 204 207 218 227 231 227 230 228 227 217 195 185 182 185 186 185 183 183 180 180 178 178 177 174 170 167 165 164 162 159 155 152 152 150 149 150 152 153 157
238 217 209 205 197 193 205 217 217 217 229 220 213 205 189 179 178 183 185 185 182 185 187 187 184 184 185 184 182 178 177 175 173 170 167 164 163 163 162 165 170 174 189
248 229 219 211 195 186 197 217 208 200 211 212 207 200 184 178 176 184 186 188 187 188 188 192 190 188 189 190 189 186 185 185 184 181 179 177 174 174 175 178 179 191 210
252 237 229 221 199 194 196 200 203 203 200 196 202 199 194 186 179 185 189 190 191 193 192 191 191 194 195 194 193 192 190 191 191 190 187 185 185 187 189 187 190 203 218
251 237 235 224 207 203 205 196 191 198 202 174 141 174 319 200 186 187 185 184 190 195 194 193 193 194 198 200 198 197 196 196 195 194 193 192 190 190 191 191 197 205 219
258 245 228 220 213 207 205 201 191 185 197 177 154 144 163 329 282 195 181 188 191 189 191 196 195 196 196 197 200 200 199 197 197 198 196 191 188 189 191 193 199 202 211
265 250 235 225 217 207 207 205 197 190 196 197 178 157 159 200 226 262 197 190 185 183 191 194 197 199 199 198 199 202 200 197 198 198 194 189 187 188 191 192 195 193 195
274 256 242 231 225 220 213 210 202 196 189 194 198 197 174 160 159 190 259 190 180 182 187 192 198 201 200 198 199 200 200 199 199 199 196 192 189 190 193 197 199 194 192
287 269 247 235 230 224 219 213 205 200 197 193 184 179 171 159 143 147 176 179 149 173 178 179 182 193 198 197 198 201 202 200 200 200 198 195 194 195 197 198 196 197 199
295 285 260 242 233 225 219 214 207 205 205 198 191 183 171 164 173 157 160 169 168 179 149 151 165 183 191 193 197 201 201 201 201 201 200 198 198 198 197 196 196 196 197
303 301 283 256 240 231 222 214 207 209 205 198 197 199 193 189 167 158 154 155 154 163 144 155 193 180 183 186 195 199 201 201 202 203 203 201 198 196 195 195 194 196 196
297 308 305 282 258 239 226 210 209 211 206 203 203 197 194 196 183 172 163 154 150 165 180 193 200 197 180 181 196 196 199 200 204 205 206 201 195 192 191 191 191 191 195
329 337 333 317 303 259 232 206 209 212 205 205 205 199 195 196 191 185 172 165 160 177 205 198 189 196 177 174 186 189 192 198 202 204 204 200 193 189 186 183 183 179 182
359 0 359 355 345 341 280 213 205 207 199 201 201 197 197 195 185 183 179 173 168 167 188 194 190 177 162 160 166 171 179 185 193 195 195 191 186 178 172 167 160 150 145
9 9 9 8 6 7 360 336 221 201 198 196 191 192 197 189 184 183 177 174 175 164 169 175 167 145 137 137 134 138 141 151 169 176 177 173 166 157 151 144 140 133 124
11 11 11 15 14 16 16 13 331 236 201 196 189 185 187 184 182 180 179 180 177 165 160 160 157 144 135 144 136 133 128 125 125 135 142 141 136 132 129 127 126 123 116
13 14 14 13 10 9 8 2 360 12 211 196 188 185 180 176 180 176 178 177 173 167 148 148 152 141 124 131 124 119 116 110 117 119 119 119 118 116 114 116 117 115 109
11 12 12 7 4 3 4 360 6 20 28 92 171 179 177 179 182 178 175 171 165 158 151 148 142 134 128 130 132 132 124 112 112 110 106 105 105 104 106 111 113 109 105
9 4 8 6 1 1 5 6 6 17 43 61 97 141 163 175 180 176 170 167 162 160 159 154 146 139 144 148 149 142 131 119 99 104 101 92 90 85 86 95 102 105 104
358 4 7 4 4 3 3 16 27 37 60 79 91 99 125 144 164 164 161 165 166 167 165 159 156 156 158 153 141 142 138 138 127 124 108 91 82 82 75 88 100 104 103
359 2 1 4 359 352 8 17 33 57 62 69 86 102 113 118 123 129 142 147 158 168 167 160 159 163 161 160 150 149 151 139 128 143 119 98 80 78 66 82 96 100 100
353 356 360 2 360 3 14 20 39 59 65 65 75 89 103 107 115 118 117 111 107 120 155 157 159 163 159 155 152 146 137 111 100 112 110 111 105 85 65 64 84 97 99
356 357 359 6 8 2 13 24 53 62 73 72 71 74 95 105 117 115 113 108 96 87 94 112 125 131 139 142 139 131 132 134 130 134 106 113 128 108 79 43 64 89 97
353 0 15 11 13 8 12 28 54 71 81 78 69 63 72 94 109 109 113 115 109 102 102 93 92 97 110 128 138 145 148 146 136 143 151 120 139 138 126 90 57 81 92
Height
1543 1544 1545 1546 1547 1549 1550 1551 1552 1553 1555 1556 1557 1558 1559 1561 1562 1563 1564 1564 1564 1565 1565 1565 1566 1567 1568 1569 1570 1571 1572 1573 1574 1575 1576 1576 1577 1578 1578 1579 1579 1579 1579
1539 1540 1541 1542 1544 1545 1547 1549 1550 1552 1553 1554 1555 1557 1558 1559 1561 1562 1563 1563 1564 1564 1564 1565 1565 1566 1567 1569 1570 1571 1572 1573 1574 1575 1576 1576 1577 1578 1578 1579 1579 1579 1579
1535 1536 1537 1538 1539 1541 1544 1545 1547 1549 1550 1552 1553 1554 1556 1557 1559 1560 1562 1562 1563 1563 1563 1564 1564 1565 1567 1568 1569 1570 1572 1573 1574 1575 1575 1576 1577 1578 1578 1578 1579 1579 1579
1530 1531 1532 1534 1535 1537 1539 1541 1543 1545 1547 1549 1550 1552 1553 1555 1557 1558 1560 1561 1562 1562 1563 1563 1564 1565 1566 1567 1568 1570 1571 1572 1573 1574 1575 1576 1576 1577 1577 1578 1578 1578 1578
1525 1526 1528 1529 1531 1533 1535 1537 1539 1541 1543 1545 1547 1549 1551 1553 1554 1556 1558 1559 1561 1561 1562 1562 1563 1564 1565 1566 1567 1569 1570 1571 1572 1573 1574 1575 1576 1576 1576 1577 1577 1577 1577
1520 1521 1522 1524 1526 1527 1530 1532 1535 1537 1539 1542 1545 1547 1549 1550 1552 1554 1555 1557 1559 1560 1561 1562 1562 1563 1564 1565 1566 1567 1569 1570 1571 1572 1573 1574 1574 1575 1575 1576 1576 1576 1576
1514 1516 1517 1519 1521 1522 1524 1527 1530 1532 1535 1538 1541 1543 1546 1548 1549 1551 1553 1554 1556 1558 1559 1561 1562 1562 1563 1564 1565 1566 1568 1569 1570 1571 1572 1572 1573 1574 1574 1574 1574 1574 1574
1509 1510 1511 1513 1515 1517 1519 1522 1524 1527 1530 1533 1536 1539 1541 1545 1545 1547 1549 1551 1553 1555 1557 1559 1560 1561 1562 1563 1564 1565 1566 1567 1568 1569 1570 1571 1572 1572 1573 1573 1573 1573 1573
1504 1505 1506 1507 1509 1512 1514 1516 1519 1521 1524 1528 1531 1534 1536 1538 1541 1543 1545 1548 1550 1552 1554 1556 1558 1560 1561 1562 1563 1564 1565 1566 1567 1568 1569 1570 1571 1571 1572 1572 1572 1572 1572
1499 1499 1500 1501 1503 1505 1508 1511 1513 1515 1519 1522 1525 1529 1532 1533 1536 1538 1541 1544 1546 1548 1550 1553 1555 1557 1559 1560 1562 1563 1564 1565 1566 1567 1568 1569 1569 1570 1570 1571 1571 1571 1571
1494 1494 1495 1496 1497 1500 1502 1505 1507 1510 1513 1516 1519 1522 1526 1529 1531 1533 1535 1539 1542 1544 1546 1549 1551 1553 1555 1557 1559 1561 1562 1563 1564 1565 1567 1567 1568 1569 1569 1569 1570 1570 1570
1490 1490 1490 1491 1492 1494 1496 1499 1502 1504 1507 1510 1514 1517 1520 1523 1525 1528 1531 1534 1537 1540 1542 1544 1547 1549 1551 1554 1556 1558 1560 1561 1562 1564 1565 1566 1567 1567 1568 1568 1568 1569 1569
1487 1486 1486 1487 1487 1489 1491 1493 1496 1499 1502 1504 1508 1511 1514 1517 1521 1524 1527 1529 1532 1535 1538 1540 1542 1545 1548 1550 1552 1554 1557 1558 1560 1561 1563 1564 1565 1565 1566 1567 1567 1567 1567
1484 1484 1483 1483 1483 1484 1486 1487 1489 1492 1496 1499 1502 1505 1508 1511 1515 1518 1522 1525 1528 1531 1534 1536 1538 1541 1544 1546 1548 1551 1553 1555 1557 1558 1560 1561 1563 1564 1564 1565 1565 1565 1566
1482 1481 1480 1480 1480 1481 1482 1483 1485 1488 1491 1493 1496 1499 1502 1505 1509 1513 1516 1520 1524 1526 1529 1532 1534 1537 1539 1542 1544 1547 1549 1551 1553 1555 1557 1558 1560 1561 1562 1563 1563 1564 1564
1481 1480 1478 1478 1478 1478 1479 1480 1481 1483 1485 1488 1491 1493 1496 1500 1503 1507 1510 1514 1518 1521 1524 1527 1530 1533 1535 1538 1541 1543 1546 1548 1550 1552 1553 1555 1557 1558 1559 1560 1561 1562 1562
1481 1479 1478 1477 1476 1476 1477 1477 1478 1479 1481 1483 1486 1488 1491 1494 1498 1501 1505 1508 1512 1516 1519 1523 1526 1529 1532 1534 1537 1540 1542 1545 1546 1548 1550 1552 1554 1555 1556 1558 1559 1559 1559
1482 1480 1478 1476 1475 1475 1475 1475 1475 1476 1478 1479 1481 1484 1487 1490 1493 1496 1499 1503 1507 1511 1515 1518 1521 1525 1528 1531 1534 1537 1539 1542 1544 1545 1547 1549 1551 1552 1553 1555 1556 1557 1557
1483 1481 1479 1477 1475 1474 1474 1474 1474 1474 1475 1476 1478 1480 1482 1485 1488 1491 1495 1498 1502 1506 1510 1514 1517 1521 1525 1528 1531 1534 1537 1539 1541 1543 1544 1546 1548 1550 1551 1552 1553 1554 1555
1484 1481 1479 1477 1476 1475 1474 1473 1472 1473 1473 1474 1476 1477 1480 1482 1485 1488 1491 1495 1498 1502 1506 1510 1514 1518 1521 1525 1528 1531 1534 1537 1539 1541 1543 1544 1546 1548 1549 1550 1551 1552 1553
1484 1482 1480 1478 1476 1475 1474 1473 1472 1472 1472 1473 1474 1475 1478 1480 1483 1485 1488 1491 1495 1499 1503 1506 1510 1514 1518 1522 1525 1528 1532 1535 1537 1540 1541 1543 1545 1546 1548 1549 1550 1551 1551
1486 1483 1481 1479 1477 1475 1474 1473 1473 1472 1472 1473 1473 1475 1477 1479 1482 1484 1487 1490 1493 1496 1500 1503 1507 1511 1515 1519 1523 1526 1529 1532 1536 1539 1541 1543 1545 1546 1547 1548 1549 1550 1550
1487 1484 1482 1480 1478 1476 1475 1474 1473 1473 1473 1473 1474 1475 1477 1479 1481 1484 1487 1490 1493 1496 1499 1502 1506 1509 1513 1516 1520 1524 1528 1531 1534 1537 1540 1542 1544 1546 1547 1548 1548 1549 1549
1489 1486 1483 1481 1479 1477 1476 1475 1474 1474 1474 1474 1475 1476 1477 1479 1481 1484 1486 1489 1492 1495 1499 1502 1505 1509 1512 1516 1520 1523 1527 1530 1534 1537 1539 1541 1543 1545 1547 1548 1548 1549 1548
1490 1488 1485 1483 1480 1479 1477 1476 1475 1475 1475 1475 1476 1478 1479 1481 1483 1485 1488 1490 1493 1496 1499 1502 1505 1508 1512 1515 1519 1523 1526 1529 1532 1536 1538 1540 1543 1545 1547 1547 1548 1548 1548
1492 1490 1487 1484 1482 1480 1479 1477 1477 1476 1476 1477 1478 1480 1481 1483 1485 1487 1489 1492 1494 1497 1499 1502 1505 1509 1512 1516 1519 1522 1525 1528 1531 1535 1537 1540 1542 1544 1546 1547 1547 1548 1548